| time (UTC) | temp F | wind direction | speed knots | gust knots | rain 1hr in | rain 24hr in | rain mn in | humidity % | barometer mb |
| 20260903123059 | 63 | 51 | 0.9 | 2.6 | 0.00 | 0.00 | 0.00 | 83 | 1014.4 |
| 20260903121555 | 63 | 51 | 0.9 | 3.5 | 0.00 | 0.00 | 0.00 | 83 | 1014.4 |
| 20260903114603 | 63 | 42 | 1.7 | 2.6 | 0.00 | 0.00 | 0.00 | 84 | 1014.5 |
| 20260903113058 | 62 | 42 | 2.6 | 3.5 | 0.00 | 0.00 | 0.00 | 84 | 1014.4 |
| 20260903111556 | 62 | 41 | 1.7 | 2.6 | 0.00 | 0.00 | 0.00 | 83 | 1014.5 |
| 20260903110100 | 63 | 44 | 2.6 | 3.5 | 0.00 | 0.00 | 0.00 | 83 | 1014.5 |
| 20260903104557 | 63 | 57 | 2.6 | 3.5 | 0.00 | 0.00 | 0.00 | 83 | 1014.7 |
| 20260903103059 | 63 | 63 | 2.6 | 3.5 | 0.00 | 0.00 | 0.00 | 83 | 1014.7 |
| 20260903101602 | 63 | 80 | 1.7 | 2.6 | 0.00 | 0.00 | 0.00 | 82 | 1014.9 |
| 20260903100056 | 64 | 84 | 1.7 | 2.6 | 0.00 | 0.00 | 0.00 | 82 | 1015.0 |
| 20260903094634 | 64 | 85 | 0.9 | 2.6 | 0.00 | 0.00 | 0.00 | 82 | 1015.2 |
| 20260903093054 | 64 | 86 | 0.9 | 3.5 | 0.00 | 0.00 | 0.00 | 83 | 1015.3 |
| 20260903091601 | 64 | 86 | 0.9 | 2.6 | 0.00 | 0.00 | 0.00 | 82 | 1015.4 |
| 20260903090052 | 65 | 86 | 1.7 | 3.5 | 0.00 | 0.00 | 0.00 | 82 | 1015.3 |
| 20260903084600 | 65 | 88 | 2.6 | 5.2 | 0.00 | 0.00 | 0.00 | 82 | 1015.4 |
| 20260903083057 | 65 | 109 | 1.7 | 3.5 | 0.00 | 0.00 | 0.00 | 82 | 1015.5 |
| 20260903081555 | 65 | 112 | 0.9 | 2.6 | 0.00 | 0.00 | 0.00 | 82 | 1015.5 |
| 20260903080101 | 65 | 112 | 0.9 | 5.2 | 0.00 | 0.00 | 0.00 | 82 | 1015.5 |
| 20260903074607 | 65 | 208 | 0.9 | 2.6 | 0.00 | 0.00 | 0.00 | 82 | 1015.6 |
| 20260903073102 | 66 | 230 | 0.9 | 1.7 | 0.00 | 0.00 | 0.00 | 82 | 1015.5 |
| 20260903071602 | 65 | 231 | 0.9 | 2.6 | 0.00 | 0.00 | 0.00 | 82 | 1015.6 |
| 20260903070057 | 66 | 0 | 0.0 | 1.7 | 0.00 | 0.00 | 0.00 | 81 | 1015.5 |
| 20260903064608 | 66 | 233 | 0.9 | 1.7 | 0.00 | 0.00 | 0.00 | 81 | 1015.7 |
| 20260903063102 | 66 | 234 | 0.0 | 1.7 | 0.00 | 0.00 | 0.00 | 81 | 1015.6 |
| 20260903061601 | 66 | 0 | 0.0 | 1.7 | 0.00 | 0.00 | 0.00 | 81 | 1015.7 |
| 20260903060105 | 67 | 234 | 0.0 | 1.7 | 0.00 | 0.00 | 0.00 | 80 | 1015.8 |
| 20260903054613 | 66 | 236 | 0.0 | 0.9 | 0.00 | 0.00 | 0.00 | 80 | 1015.9 |
| 20260903053107 | 66 | 0 | 0.0 | 0.9 | 0.00 | 0.00 | 0.00 | 81 | 1016.0 |
| 20260903051604 | 66 | 0 | 0.0 | 0.0 | 0.00 | 0.00 | 0.00 | 80 | 1016.0 |
| 20260903050106 | 66 | 0 | 0.0 | 0.0 | 0.00 | 0.00 | 0.00 | 80 | 1016.0 |
| 20260903044602 | 67 | 0 | 0.0 | 1.7 | 0.00 | 0.00 | 0.00 | 81 | 1015.9 |
| 20260903043105 | 66 | 0 | 0.0 | 0.0 | 0.00 | 0.00 | 0.00 | 81 | 1015.9 |
| 20260903041609 | 66 | 0 | 0.0 | 0.0 | 0.00 | 0.00 | 0.00 | 79 | 1015.8 |
| 20260903040126 | 67 | 0 | 0.0 | 0.0 | 0.00 | 0.00 | 0.00 | 79 | 1015.7 |
| 20260903034602 | 67 | 0 | 0.0 | 0.0 | 0.00 | 0.00 | 0.00 | 78 | 1015.5 |
| 20260903033106 | 68 | 0 | 0.0 | 0.9 | 0.00 | 0.00 | 0.00 | 80 | 1015.6 |
| 20260903031604 | 68 | 0 | 0.0 | 1.7 | 0.00 | 0.00 | 0.00 | 79 | 1015.3 |
| 20260903030058 | 68 | 0 | 0.0 | 1.7 | 0.00 | 0.00 | 0.00 | 79 | 1015.1 |
| 20260903024552 | 69 | 0 | 0.0 | 2.6 | 0.00 | 0.00 | 0.00 | 79 | 1015.1 |
| 20260903023103 | 69 | 236 | 0.0 | 2.6 | 0.00 | 0.00 | 0.00 | 79 | 1015.0 |
| 20260903021600 | 69 | 0 | 0.0 | 2.6 | 0.00 | 0.00 | 0.00 | 77 | 1015.0 |
| 20260903020058 | 70 | 238 | 0.9 | 6.1 | 0.00 | 0.00 | 0.00 | 75 | 1015.1 |
| 20260903014601 | 70 | 249 | 2.6 | 7.0 | 0.00 | 0.00 | 0.00 | 74 | 1014.9 |
| 20260903013055 | 71 | 269 | 3.5 | 9.6 | 0.00 | 0.00 | 0.00 | 73 | 1015.0 |
| 20260903011602 | 72 | 252 | 3.5 | 9.6 | 0.00 | 0.00 | 0.00 | 71 | 1014.8 |
| 20260903010105 | 74 | 221 | 3.5 | 7.8 | 0.00 | 0.00 | 0.00 | 69 | 1014.9 |
| 20260903004558 | 74 | 231 | 3.5 | 8.7 | 0.00 | 0.00 | 0.00 | 66 | 1015.0 |
| 20260903003104 | 73 | 232 | 4.3 | 9.6 | 0.00 | 0.00 | 0.00 | 68 | 1015.0 |
| 20260903001605 | 74 | 223 | 3.5 | 8.7 | 0.00 | 0.00 | 0.00 | 69 | 1015.0 |
| 20260903000059 | 74 | 260 | 2.6 | 9.6 | 0.00 | 0.00 | 0.00 | 68 | 1014.9 |
| 20260902234603 | 75 | 232 | 2.6 | 8.7 | 0.00 | 0.00 | 0.00 | 69 | 1015.1 |
| 20260902233052 | 74 | 242 | 4.3 | 9.6 | 0.00 | 0.00 | 0.00 | 68 | 1015.2 |
| 20260902231559 | 75 | 360 | 5.2 | 11.3 | 0.00 | 0.00 | 0.00 | 69 | 1015.3 |
| 20260902230116 | 75 | 256 | 3.5 | 9.6 | 0.00 | 0.00 | 0.00 | 69 | 1015.5 |
| 20260902224604 | 75 | 360 | 6.1 | 10.4 | 0.00 | 0.00 | 0.00 | 68 | 1015.6 |
| 20260902223058 | 75 | 360 | 6.1 | 10.4 | 0.00 | 0.00 | 0.00 | 67 | 1015.7 |
| 20260902221608 | 75 | 236 | 5.2 | 10.4 | 0.00 | 0.00 | 0.00 | 67 | 1015.9 |
| 20260902220104 | 76 | 248 | 4.3 | 11.3 | 0.00 | 0.00 | 0.00 | 68 | 1015.8 |
| 20260902214600 | 76 | 259 | 2.6 | 12.2 | 0.00 | 0.00 | 0.00 | 67 | 1015.9 |
| 20260902213055 | 75 | 223 | 5.2 | 11.3 | 0.00 | 0.00 | 0.00 | 69 | 1016.0 |
| 20260902211553 | 74 | 229 | 5.2 | 11.3 | 0.00 | 0.00 | 0.00 | 69 | 1016.0 |
| 20260902210121 | 74 | 247 | 6.1 | 13.0 | 0.00 | 0.00 | 0.00 | 69 | 1016.1 |
| 20260902204601 | 75 | 201 | 5.2 | 11.3 | 0.00 | 0.00 | 0.00 | 69 | 1016.1 |
| 20260902203107 | 75 | 259 | 4.3 | 11.3 | 0.00 | 0.00 | 0.00 | 69 | 1016.2 |
| 20260902201614 | 75 | 245 | 4.3 | 10.4 | 0.00 | 0.00 | 0.00 | 69 | 1016.3 |
| 20260902200107 | 75 | 256 | 5.2 | 10.4 | 0.00 | 0.00 | 0.00 | 69 | 1016.4 |
| 20260902194600 | 75 | 259 | 6.1 | 12.2 | 0.00 | 0.00 | 0.00 | 71 | 1016.5 |
| 20260902193100 | 75 | 217 | 4.3 | 12.2 | 0.00 | 0.00 | 0.00 | 69 | 1016.6 |
| 20260902191601 | 75 | 261 | 6.1 | 11.3 | 0.00 | 0.00 | 0.00 | 69 | 1016.8 |
| 20260902190125 | 76 | 360 | 4.3 | 10.4 | 0.00 | 0.00 | 0.00 | 69 | 1016.6 |
| 20260902184608 | 75 | 220 | 3.5 | 8.7 | 0.00 | 0.00 | 0.00 | 68 | 1016.7 |
| 20260902183110 | 76 | 221 | 3.5 | 10.4 | 0.00 | 0.00 | 0.00 | 67 | 1016.8 |
| 20260902181608 | 76 | 360 | 3.5 | 8.7 | 0.00 | 0.00 | 0.00 | 69 | 1017.1 |
| 20260902174600 | 74 | 233 | 4.3 | 8.7 | 0.00 | 0.00 | 0.00 | 69 | 1017.1 |
| 20260902173056 | 76 | 190 | 1.7 | 8.7 | 0.00 | 0.00 | 0.00 | 67 | 1017.1 |
| 20260902171620 | 77 | 161 | 3.5 | 7.8 | 0.00 | 0.00 | 0.00 | 66 | 1016.9 |
| 20260902170059 | 77 | 182 | 0.9 | 5.2 | 0.00 | 0.00 | 0.00 | 67 | 1016.9 |
| 20260902164601 | 76 | 179 | 1.7 | 7.8 | 0.00 | 0.00 | 0.00 | 67 | 1017.0 |
| 20260902163103 | 78 | 236 | 2.6 | 7.0 | 0.00 | 0.00 | 0.00 | 64 | 1017.0 |
| 20260902161603 | 75 | 196 | 2.6 | 6.1 | 0.00 | 0.00 | 0.00 | 67 | 1016.8 |
| 20260902160105 | 76 | 115 | 0.9 | 6.1 | 0.00 | 0.00 | 0.00 | 67 | 1016.8 |
| 20260902154604 | 72 | 60 | 0.9 | 7.0 | 0.00 | 0.00 | 0.00 | 73 | 1016.8 |
| 20260902153101 | 74 | 67 | 1.7 | 4.3 | 0.00 | 0.00 | 0.00 | 70 | 1016.7 |
| 20260902151603 | 72 | 78 | 1.7 | 5.2 | 0.00 | 0.00 | 0.00 | 73 | 1016.8 |
| 20260902150106 | 70 | 42 | 0.9 | 3.5 | 0.00 | 0.00 | 0.00 | 79 | 1016.7 |
| 20260902144602 | 67 | 36 | 0.9 | 2.6 | 0.00 | 0.00 | 0.00 | 83 | 1016.6 |
| 20260902143055 | 66 | 0 | 0.9 | 2.6 | 0.00 | 0.00 | 0.00 | 85 | 1016.7 |
| 20260902141601 | 65 | 0 | 0.0 | 2.6 | 0.00 | 0.00 | 0.00 | 85 | 1016.6 |
| 20260902140100 | 64 | 34 | 0.9 | 2.6 | 0.00 | 0.00 | 0.00 | 86 | 1016.3 |
| 20260902134615 | 64 | 35 | 0.0 | 2.6 | 0.00 | 0.00 | 0.00 | 86 | 1016.3 |
| 20260902133056 | 63 | 36 | 0.9 | 2.6 | 0.00 | 0.00 | 0.00 | 86 | 1016.0 |
| 20260902131601 | 63 | 34 | 0.9 | 2.6 | 0.00 | 0.00 | 0.00 | 86 | 1016.0 |
| 20260902124554 | 64 | 38 | 1.7 | 2.6 | 0.00 | 0.00 | 0.00 | 86 | 1015.9 |